Volver al catálogo

DONGPO 16

ActivoCienciaSSO
NORAD 68201·PAYLOAD·🇨🇳 China
Este nombre de satélite aún no ha sido confirmado por fuentes oficiales.

Lanzado Mar 16, 2026 desde Jiuquan Satellite Launch Center

Loading…

Próximos Pases (próximas 24 horas)

TLE

ActualizadoSource: Space-Track

Época: Sep 14, 2026, 22:51 UTC

1 68201U 26052D   26257.95226021  .00005712  00000-0  33352-3 0  9995
2 68201  97.5255 331.5064 0011189   8.1301 352.0108 15.12260303 27615

Sigue DONGPO 16 en tiempo real con AllMySat

Download on the App Store